Tracking 19281 objects as of 16-Nov-2018
HD Live streaming from Space Station
objects crossing your sky now

GGSE 2

Track GGSE 2 now!
10-day predictions
GGSE 2 is classified as:


NORAD ID: 1244
Int'l Code: 1965-016B
Perigee: 902.5 km
Apogee: 929.8 km
Inclination: 70.1 °
Period: 103.2 minutes
Semi major axis: 7287 km
RCS: 0.4868 m2 (medium)
Launch date: March 9, 1965
Source: United States (US)
Launch site: AIR FORCE WESTERN TEST RANGE (AFWTR)
aabbcc
Your satellite tracking list
Your tracking list is empty




NASA's NSSDC Master Catalog

Two Line Element Set (TLE):
1  1244U 65016B   18319.46334213 -.00000011  00000-0  30402-4 0  9993
2  1244  70.0788 325.0877 0018775 137.3648 222.8919 13.95619049731882
Source of the keplerian elements: AFSPC